Time,TemperatureF,DewpointF,PressureIn,WindDirection,WindDirectionDegrees,WindSpeedMPH,WindSpeedGustMPH,Humidity,HourlyPrecipIn,Conditions,Clouds,dailyrainin,SoftwareType,DateUTC
2013-04-30 00:01:00,77.5,22.9,29.81,NNE,20,5.4,5.8,13,0.00,,---,0.00,VWS V14.00,2013-04-30 07:01:00,
2013-04-30 00:06:00,77.5,22.9,29.81,NE,43,2.7,5.8,13,0.00,,---,0.00,VWS V14.00,2013-04-30 07:06:00,
2013-04-30 00:11:00,77.4,22.7,29.81,ENE,73,5.4,5.8,13,0.00,,---,0.00,VWS V14.00,2013-04-30 07:11:00,
2013-04-30 00:16:00,77.2,22.6,29.81,ENE,60,6.7,6.7,13,0.00,,---,0.00,VWS V14.00,2013-04-30 07:16:00,
2013-04-30 00:21:00,77.0,22.4,29.81,ENE,57,5.4,7.6,13,0.00,,---,0.00,VWS V14.00,2013-04-30 07:21:00,
2013-04-30 00:26:00,76.8,22.3,29.81,NE,36,0.0,7.6,13,0.00,,---,0.00,VWS V14.00,2013-04-30 07:26:00,
2013-04-30 00:30:00,76.5,22.0,29.81,ENE,64,2.7,4.0,13,0.00,,---,0.00,VWS V14.00,2013-04-30 07:30:00,
2013-04-30 00:35:00,76.5,22.0,29.81,ENE,72,3.6,6.3,13,0.00,,---,0.00,VWS V14.00,2013-04-30 07:35:00,
2013-04-30 00:40:00,76.6,22.1,29.81,NE,42,4.0,6.3,13,0.00,,---,0.00,VWS V14.00,2013-04-30 07:40:00,
2013-04-30 00:45:00,76.5,22.0,29.81,ENE,63,2.7,3.1,13,0.00,,---,0.00,VWS V14.00,2013-04-30 07:45:00,
2013-04-30 00:50:00,76.5,22.0,29.81,ENE,63,3.1,4.9,13,0.00,,---,0.00,VWS V14.00,2013-04-30 07:50:00,
2013-04-30 00:55:00,76.3,21.9,29.81,ENE,60,4.9,4.9,13,0.00,,---,0.00,VWS V14.00,2013-04-30 07:55:00,
2013-04-30 01:00:00,76.1,21.7,29.81,ENE,65,4.0,8.1,13,0.00,,---,0.00,VWS V14.00,2013-04-30 08:00:00,
2013-04-30 01:05:00,76.1,21.7,29.81,ENE,72,3.6,8.3,13,0.00,,---,0.00,VWS V14.00,2013-04-30 08:05:00,
2013-04-30 01:10:00,76.5,22.0,29.81,NE,56,3.6,8.3,13,0.00,,---,0.00,VWS V14.00,2013-04-30 08:10:00,
2013-04-30 01:15:00,76.3,21.9,29.81,ENE,69,4.9,5.4,13,0.00,,---,0.00,VWS V14.00,2013-04-30 08:15:00,
2013-04-30 01:20:00,76.1,21.7,29.81,ENE,63,3.1,5.8,13,0.00,,---,0.00,VWS V14.00,2013-04-30 08:20:00,
2013-04-30 01:25:00,75.9,21.6,29.81,ENE,58,3.1,5.8,13,0.00,,---,0.00,VWS V14.00,2013-04-30 08:25:00,
2013-04-30 01:30:00,75.6,21.3,29.81,ENE,65,4.0,4.0,13,0.00,,---,0.00,VWS V14.00,2013-04-30 08:30:00,
2013-04-30 01:35:00,75.2,21.0,29.81,ENE,57,2.7,4.9,13,0.00,,---,0.00,VWS V14.00,2013-04-30 08:35:00,
2013-04-30 01:40:00,74.8,20.7,29.81,ENE,57,3.1,4.9,13,0.00,,---,0.00,VWS V14.00,2013-04-30 08:40:00,
2013-04-30 01:45:00,74.7,20.6,29.81,ENE,64,3.1,4.0,13,0.00,,---,0.00,VWS V14.00,2013-04-30 08:45:00,
2013-04-30 01:50:00,74.3,20.3,29.81,ENE,64,2.7,4.0,13,0.00,,---,0.00,VWS V14.00,2013-04-30 08:50:00,
2013-04-30 01:55:00,73.9,20.0,29.81,ENE,67,0.0,4.0,13,0.00,,---,0.00,VWS V14.00,2013-04-30 08:55:00,
2013-04-30 02:00:00,73.2,21.2,29.81,ENE,67,0.0,0.0,14,0.00,,---,0.00,VWS V14.00,2013-04-30 09:00:00,
2013-04-30 02:05:00,72.3,20.5,29.81,SSW,202,4.0,5.4,14,0.00,,---,0.00,VWS V14.00,2013-04-30 09:05:00,
2013-04-30 02:10:00,72.0,20.2,29.81,SW,214,2.7,5.4,14,0.00,,---,0.00,VWS V14.00,2013-04-30 09:10:00,
2013-04-30 02:15:00,71.6,19.9,29.81,SSW,208,0.0,0.0,14,0.00,,---,0.00,VWS V14.00,2013-04-30 09:15:00,
2013-04-30 02:20:00,71.2,19.6,29.81,SSW,207,0.0,0.0,14,0.00,,---,0.00,VWS V14.00,2013-04-30 09:20:00,
2013-04-30 02:25:00,70.5,19.1,29.81,SSW,208,0.0,0.0,14,0.00,,---,0.00,VWS V14.00,2013-04-30 09:25:00,
2013-04-30 02:30:00,70.0,18.6,29.81,SSW,208,0.0,0.0,14,0.00,,---,0.00,VWS V14.00,2013-04-30 09:30:00,
2013-04-30 02:35:00,69.3,19.7,29.81,SSW,207,0.0,0.0,15,0.00,,---,0.00,VWS V14.00,2013-04-30 09:35:00,
2013-04-30 02:40:00,68.9,19.4,29.81,SSW,208,0.0,0.0,15,0.00,,---,0.00,VWS V14.00,2013-04-30 09:40:00,
2013-04-30 02:45:00,68.4,19.0,29.81,SSW,208,0.0,2.2,15,0.00,,---,0.00,VWS V14.00,2013-04-30 09:45:00,
2013-04-30 02:50:00,68.2,18.8,29.81,SSW,207,0.0,2.2,15,0.00,,---,0.00,VWS V14.00,2013-04-30 09:50:00,
2013-04-30 02:55:00,67.8,18.5,29.81,SSW,208,0.0,2.2,15,0.00,,---,0.00,VWS V14.00,2013-04-30 09:55:00,
2013-04-30 03:00:00,67.5,18.2,29.81,SSW,208,0.0,0.0,15,0.00,,---,0.00,VWS V14.00,2013-04-30 10:00:00,
2013-04-30 03:05:00,66.9,17.8,29.84,SSW,207,0.0,0.0,15,0.00,,---,0.00,VWS V14.00,2013-04-30 10:05:00,
2013-04-30 03:10:00,66.6,17.5,29.84,SSW,208,0.0,0.0,15,0.00,,---,0.00,VWS V14.00,2013-04-30 10:10:00,
2013-04-30 03:15:00,66.4,17.4,29.84,SSW,206,0.0,0.0,15,0.00,,---,0.00,VWS V14.00,2013-04-30 10:15:00,
2013-04-30 03:20:00,66.2,17.2,29.84,SSW,206,0.0,0.0,15,0.00,,---,0.00,VWS V14.00,2013-04-30 10:20:00,
2013-04-30 03:25:00,66.0,17.1,29.84,SSW,206,0.0,0.0,15,0.00,,---,0.00,VWS V14.00,2013-04-30 10:25:00,
2013-04-30 03:30:00,65.7,16.8,29.84,SSW,205,2.7,2.7,15,0.00,,---,0.00,VWS V14.00,2013-04-30 10:30:00,
2013-04-30 03:35:00,65.5,16.6,29.84,SSW,205,0.0,2.7,15,0.00,,---,0.00,VWS V14.00,2013-04-30 10:35:00,
2013-04-30 03:40:00,65.3,16.5,29.84,SSW,200,2.2,2.7,15,0.00,,---,0.00,VWS V14.00,2013-04-30 10:40:00,
2013-04-30 03:45:00,65.1,16.4,29.84,SSW,200,0.0,0.0,15,0.00,,---,0.00,VWS V14.00,2013-04-30 10:45:00,
2013-04-30 03:50:00,64.8,16.1,29.84,ESE,120,2.7,4.0,15,0.00,,---,0.00,VWS V14.00,2013-04-30 10:50:00,
2013-04-30 03:55:00,64.8,16.1,29.84,ESE,120,0.0,4.0,15,0.00,,---,0.00,VWS V14.00,2013-04-30 10:55:00,
2013-04-30 04:00:00,64.6,15.9,29.84,ESE,120,0.0,0.0,15,0.00,,---,0.00,VWS V14.00,2013-04-30 11:00:00,
2013-04-30 04:05:00,64.6,15.9,29.84,ESE,120,0.0,0.0,15,0.00,,---,0.00,VWS V14.00,2013-04-30 11:05:00,
2013-04-30 04:10:00,64.4,15.8,29.84,ESE,120,0.0,0.0,15,0.00,,---,0.00,VWS V14.00,2013-04-30 11:10:00,
2013-04-30 04:15:00,64.2,17.1,29.84,ESE,120,0.0,0.0,16,0.00,,---,0.00,VWS V14.00,2013-04-30 11:15:00,
2013-04-30 04:20:00,64.0,17.0,29.84,ENE,71,3.1,3.1,16,0.00,,---,0.00,VWS V14.00,2013-04-30 11:20:00,
2013-04-30 04:25:00,64.0,17.0,29.84,ENE,71,0.0,4.0,16,0.00,,---,0.00,VWS V14.00,2013-04-30 11:25:00,
2013-04-30 04:30:00,64.0,17.0,29.84,ENE,71,0.0,2.2,16,0.00,,---,0.00,VWS V14.00,2013-04-30 11:30:00,
2013-04-30 04:35:00,63.9,16.8,29.84,ENE,71,0.0,2.2,16,0.00,,---,0.00,VWS V14.00,2013-04-30 11:35:00,
2013-04-30 04:40:00,63.3,16.4,29.84,ENE,71,0.0,2.2,16,0.00,,---,0.00,VWS V14.00,2013-04-30 11:40:00,
2013-04-30 04:45:00,62.8,15.9,29.84,SSW,200,3.1,3.6,16,0.00,,---,0.00,VWS V14.00,2013-04-30 11:45:00,
2013-04-30 04:50:00,62.4,15.7,29.84,SSW,200,0.0,3.6,16,0.00,,---,0.00,VWS V14.00,2013-04-30 11:50:00,
2013-04-30 04:55:00,62.2,15.5,29.84,SSW,200,0.0,3.6,16,0.00,,---,0.00,VWS V14.00,2013-04-30 11:55:00,
2013-04-30 05:00:00,62.2,15.5,29.84,SSW,195,0.0,0.0,16,0.00,,---,0.00,VWS V14.00,2013-04-30 12:00:00,
2013-04-30 05:05:00,62.2,15.5,29.84,ENE,70,3.6,4.0,16,0.00,,---,0.00,VWS V14.00,2013-04-30 12:05:00,
2013-04-30 05:10:00,62.4,15.7,29.84,ENE,71,0.0,4.0,16,0.00,,---,0.00,VWS V14.00,2013-04-30 12:10:00,
2013-04-30 05:15:00,62.2,15.5,29.84,ENE,71,0.0,0.0,16,0.00,,---,0.00,VWS V14.00,2013-04-30 12:15:00,
2013-04-30 05:20:00,62.1,15.4,29.84,ENE,71,0.0,0.0,16,0.00,,---,0.00,VWS V14.00,2013-04-30 12:20:00,
2013-04-30 05:25:00,61.9,15.2,29.84,ENE,71,0.0,0.0,16,0.00,,---,0.00,VWS V14.00,2013-04-30 12:25:00,
2013-04-30 05:30:00,61.7,15.1,29.84,East,86,0.0,0.0,16,0.00,,---,0.00,VWS V14.00,2013-04-30 12:30:00,
2013-04-30 05:35:00,61.5,14.9,29.87,East,86,0.0,0.0,16,0.00,,---,0.00,VWS V14.00,2013-04-30 12:35:00,
2013-04-30 05:40:00,61.2,14.6,29.87,East,86,0.0,0.0,16,0.00,,---,0.00,VWS V14.00,2013-04-30 12:40:00,
2013-04-30 05:45:00,60.8,14.4,29.87,East,86,0.0,0.0,16,0.00,,---,0.00,VWS V14.00,2013-04-30 12:45:00,
2013-04-30 05:50:00,60.4,15.4,29.87,East,86,0.0,0.0,17,0.00,,---,0.00,VWS V14.00,2013-04-30 12:50:00,
2013-04-30 05:55:00,60.3,15.3,29.87,East,85,0.0,0.0,17,0.00,,---,0.00,VWS V14.00,2013-04-30 12:55:00,
2013-04-30 06:00:00,60.1,15.1,29.87,East,85,0.0,0.0,17,0.00,,---,0.00,VWS V14.00,2013-04-30 13:00:00,
2013-04-30 06:05:00,59.7,14.9,29.87,East,86,0.0,0.0,17,0.00,,---,0.00,VWS V14.00,2013-04-30 13:05:00,
2013-04-30 06:10:00,59.5,14.7,29.87,East,86,0.0,0.0,17,0.00,,---,0.00,VWS V14.00,2013-04-30 13:10:00,
2013-04-30 06:15:00,59.4,17.1,29.87,East,86,0.0,0.0,19,0.00,,---,0.00,VWS V14.00,2013-04-30 13:15:00,
2013-04-30 06:20:00,59.5,17.3,29.87,East,85,0.0,0.0,19,0.00,,---,0.00,VWS V14.00,2013-04-30 13:20:00,
2013-04-30 06:25:00,59.7,17.4,29.87,East,85,0.0,0.0,19,0.00,,---,0.00,VWS V14.00,2013-04-30 13:25:00,
2013-04-30 06:30:00,60.1,17.7,29.87,South,181,0.0,0.0,19,0.00,,---,0.00,VWS V14.00,2013-04-30 13:30:00,
2013-04-30 06:35:00,60.6,18.2,29.87,South,191,0.0,3.1,19,0.00,,---,0.00,VWS V14.00,2013-04-30 13:35:00,
2013-04-30 06:40:00,61.9,19.2,29.87,South,186,0.0,3.1,19,0.00,,---,0.00,VWS V14.00,2013-04-30 13:40:00,
2013-04-30 06:45:00,63.1,19.0,29.87,SSW,197,0.0,3.1,18,0.00,,---,0.00,VWS V14.00,2013-04-30 13:45:00,
2013-04-30 06:50:00,64.2,19.9,29.87,SSW,200,2.2,4.0,18,0.00,,---,0.00,VWS V14.00,2013-04-30 13:50:00,
2013-04-30 06:55:00,65.1,20.6,29.87,SSW,207,3.1,4.0,18,0.00,,---,0.00,VWS V14.00,2013-04-30 13:55:00,
2013-04-30 07:00:00,66.0,21.3,29.87,SSW,204,3.1,3.1,18,0.00,,---,0.00,VWS V14.00,2013-04-30 14:00:00,
2013-04-30 07:05:00,66.9,20.7,29.87,SSW,203,2.2,3.6,17,0.00,,---,0.00,VWS V14.00,2013-04-30 14:05:00,
2013-04-30 07:10:00,67.6,21.3,29.87,SSW,204,3.6,4.0,17,0.00,,---,0.00,VWS V14.00,2013-04-30 14:10:00,
2013-04-30 07:15:00,68.5,22.0,29.87,SSW,199,3.6,4.0,17,0.00,,---,0.00,VWS V14.00,2013-04-30 14:15:00,
2013-04-30 07:20:00,69.4,22.8,29.87,WSW,240,3.1,5.4,17,0.00,,---,0.00,VWS V14.00,2013-04-30 14:20:00,
2013-04-30 07:25:00,70.2,23.4,29.87,SW,222,5.4,5.8,17,0.00,,---,0.00,VWS V14.00,2013-04-30 14:25:00,
2013-04-30 07:30:00,70.7,23.8,29.87,SW,215,5.8,5.8,17,0.00,,---,0.00,VWS V14.00,2013-04-30 14:30:00,
2013-04-30 07:35:00,71.4,24.4,29.87,SSW,205,4.0,5.8,17,0.00,,---,0.00,VWS V14.00,2013-04-30 14:35:00,
2013-04-30 07:40:00,72.0,23.4,29.87,South,175,2.7,5.8,16,0.00,,---,0.00,VWS V14.00,2013-04-30 14:40:00,
2013-04-30 07:45:00,72.5,23.8,29.87,SSW,195,2.7,4.9,16,0.00,,---,0.00,VWS V14.00,2013-04-30 14:45:00,
2013-04-30 07:50:00,73.0,21.1,29.87,South,183,4.0,5.4,14,0.00,,---,0.00,VWS V14.00,2013-04-30 14:50:00,
2013-04-30 07:55:00,73.6,19.8,29.87,South,169,3.1,5.4,13,0.00,,---,0.00,VWS V14.00,2013-04-30 14:55:00,
2013-04-30 08:00:00,74.1,20.2,29.87,South,180,3.1,4.9,13,0.00,,---,0.00,VWS V14.00,2013-04-30 15:00:00,
2013-04-30 08:05:00,74.7,20.6,29.87,South,180,4.0,6.3,13,0.00,,---,0.00,VWS V14.00,2013-04-30 15:05:00,
2013-04-30 08:10:00,75.2,21.0,29.87,South,183,4.0,6.3,13,0.00,,---,0.00,VWS V14.00,2013-04-30 15:10:00,
2013-04-30 08:15:00,75.9,21.6,29.87,South,185,4.0,5.4,13,0.00,,---,0.00,VWS V14.00,2013-04-30 15:15:00,
2013-04-30 08:20:00,76.5,22.0,29.87,South,171,5.4,6.3,13,0.00,,---,0.00,VWS V14.00,2013-04-30 15:20:00,
2013-04-30 08:25:00,77.2,22.6,29.87,South,181,3.1,6.3,13,0.00,,---,0.00,VWS V14.00,2013-04-30 15:25:00,
2013-04-30 08:30:00,77.7,23.0,29.87,SSE,160,3.6,4.9,13,0.00,,---,0.00,VWS V14.00,2013-04-30 15:30:00,
2013-04-30 08:35:00,78.4,23.6,29.87,SSW,210,3.1,5.8,13,0.00,,---,0.00,VWS V14.00,2013-04-30 15:35:00,
2013-04-30 08:40:00,79.2,22.2,29.87,SW,219,5.4,5.8,12,0.00,,---,0.00,VWS V14.00,2013-04-30 15:40:00,
2013-04-30 08:45:00,79.9,22.8,29.87,South,176,3.1,4.5,12,0.00,,---,0.00,VWS V14.00,2013-04-30 15:45:00,
2013-04-30 08:50:00,80.6,23.4,29.87,South,174,2.7,6.3,12,0.00,,---,0.00,VWS V14.00,2013-04-30 15:50:00,
2013-04-30 08:55:00,81.0,23.6,29.87,SSW,192,4.0,6.3,12,0.00,,---,0.00,VWS V14.00,2013-04-30 15:55:00,
2013-04-30 09:00:00,81.7,24.2,29.87,SW,232,5.8,5.8,12,0.00,,---,0.00,VWS V14.00,2013-04-30 16:00:00,
2013-04-30 09:05:00,82.2,24.6,29.87,SSE,158,3.1,5.8,12,0.00,,---,0.00,VWS V14.00,2013-04-30 16:05:00,
2013-04-30 09:10:00,82.8,23.0,29.87,SSE,167,4.0,6.3,11,0.00,,---,0.00,VWS V14.00,2013-04-30 16:10:00,
2013-04-30 09:15:00,83.3,23.4,29.87,SSE,160,4.9,5.8,11,0.00,,---,0.00,VWS V14.00,2013-04-30 16:15:00,
2013-04-30 09:20:00,83.8,23.8,29.87,SSE,149,4.0,6.3,11,0.00,,---,0.00,VWS V14.00,2013-04-30 16:20:00,
2013-04-30 09:25:00,84.4,24.2,29.87,SSE,167,2.7,8.7,11,0.00,,---,0.00,VWS V14.00,2013-04-30 16:25:00,
2013-04-30 09:30:00,84.9,24.6,29.87,SSW,203,3.1,4.9,11,0.00,,---,0.00,VWS V14.00,2013-04-30 16:30:00,
2013-04-30 09:35:00,85.5,25.0,29.87,SE,144,4.0,8.7,11,0.00,,---,0.00,VWS V14.00,2013-04-30 16:35:00,
2013-04-30 09:40:00,86.0,25.4,29.87,SE,131,3.1,8.7,11,0.00,,---,0.00,VWS V14.00,2013-04-30 16:40:00,
2013-04-30 09:45:00,86.5,25.9,29.87,South,185,3.1,4.0,11,0.00,,---,0.00,VWS V14.00,2013-04-30 16:45:00,
2013-04-30 09:50:00,86.7,26.0,29.87,SW,227,2.7,5.4,11,0.00,,---,0.00,VWS V14.00,2013-04-30 16:50:00,
2013-04-30 09:55:00,87.1,26.3,29.87,South,184,4.0,6.3,11,0.00,,---,0.00,VWS V14.00,2013-04-30 16:55:00,
2013-04-30 10:00:00,87.8,24.5,29.87,South,187,3.1,5.8,10,0.00,,---,0.00,VWS V14.00,2013-04-30 17:00:00,
2013-04-30 10:05:00,88.0,24.7,29.87,ESE,116,2.2,6.3,10,0.00,,---,0.00,VWS V14.00,2013-04-30 17:05:00,
2013-04-30 10:10:00,88.2,24.8,29.87,SW,216,2.2,6.3,10,0.00,,---,0.00,VWS V14.00,2013-04-30 17:10:00,
2013-04-30 10:15:00,88.5,25.1,29.87,SW,230,3.1,3.6,10,0.00,,---,0.00,VWS V14.00,2013-04-30 17:15:00,
2013-04-30 10:20:00,88.9,25.3,29.87,South,172,2.2,4.0,10,0.00,,---,0.00,VWS V14.00,2013-04-30 17:20:00,
2013-04-30 10:25:00,89.1,25.5,29.87,ENE,61,3.1,4.0,10,0.00,,---,0.00,VWS V14.00,2013-04-30 17:25:00,
2013-04-30 10:30:00,89.4,25.8,29.87,SSE,159,2.7,5.8,10,0.00,,---,0.00,VWS V14.00,2013-04-30 17:30:00,
2013-04-30 10:35:00,89.6,25.9,29.87,South,169,0.0,5.8,10,0.00,,---,0.00,VWS V14.00,2013-04-30 17:35:00,
2013-04-30 10:40:00,89.6,25.9,29.87,North,1,5.4,7.2,10,0.00,,---,0.00,VWS V14.00,2013-04-30 17:40:00,
2013-04-30 10:45:00,90.0,26.2,29.87,ENE,66,2.7,5.4,10,0.00,,---,0.00,VWS V14.00,2013-04-30 17:45:00,
2013-04-30 10:50:00,90.0,26.2,29.87,West,276,0.0,5.4,10,0.00,,---,0.00,VWS V14.00,2013-04-30 17:50:00,
2013-04-30 10:55:00,90.3,26.4,29.87,SSW,202,3.1,5.8,10,0.00,,---,0.00,VWS V14.00,2013-04-30 17:55:00,
2013-04-30 11:00:00,90.5,26.6,29.87,SSW,213,3.1,3.6,10,0.00,,---,0.00,VWS V14.00,2013-04-30 18:00:00,
2013-04-30 11:05:00,90.7,26.7,29.87,NNW,345,5.8,6.3,10,0.00,,---,0.00,VWS V14.00,2013-04-30 18:05:00,
2013-04-30 11:10:00,90.9,26.8,29.87,ESE,117,3.6,6.3,10,0.00,,---,0.00,VWS V14.00,2013-04-30 18:10:00,
2013-04-30 11:15:00,91.4,24.7,29.87,SSE,162,2.7,4.0,9,0.00,,---,0.00,VWS V14.00,2013-04-30 18:15:00,
2013-04-30 11:20:00,91.9,32.1,29.87,SSW,192,0.0,4.0,12,0.00,,---,0.00,VWS V14.00,2013-04-30 18:20:00,
2013-04-30 11:25:00,92.5,32.5,29.87,SW,224,4.9,5.4,12,0.00,,---,0.00,VWS V14.00,2013-04-30 18:25:00,
2013-04-30 11:30:00,93.0,33.0,29.87,SW,225,2.7,3.1,12,0.00,,---,0.00,VWS V14.00,2013-04-30 18:30:00,
2013-04-30 11:35:00,93.2,31.0,29.87,NW,313,0.0,6.3,11,0.00,,---,0.00,VWS V14.00,2013-04-30 18:35:00,
2013-04-30 11:40:00,93.0,33.0,29.84,NE,52,4.0,8.1,12,0.00,,---,0.00,VWS V14.00,2013-04-30 18:40:00,
2013-04-30 11:45:00,93.4,31.1,29.84,WSW,245,2.7,4.0,11,0.00,,---,0.00,VWS V14.00,2013-04-30 18:45:00,
2013-04-30 11:50:00,93.4,31.1,29.84,WSW,253,3.1,5.8,11,0.00,,---,0.00,VWS V14.00,2013-04-30 18:50:00,
2013-04-30 11:55:00,93.7,31.4,29.84,SSW,197,2.2,5.8,11,0.00,,---,0.00,VWS V14.00,2013-04-30 18:55:00,
2013-04-30 12:00:00,93.9,31.5,29.84,West,270,4.0,5.4,11,0.00,,---,0.00,VWS V14.00,2013-04-30 19:00:00,
2013-04-30 12:05:00,94.3,31.8,29.84,NE,41,4.0,6.7,11,0.00,,---,0.00,VWS V14.00,2013-04-30 19:05:00,
2013-04-30 12:10:00,94.5,31.9,29.84,West,261,4.0,8.3,11,0.00,,---,0.00,VWS V14.00,2013-04-30 19:10:00,
2013-04-30 12:15:00,94.8,32.2,29.84,WSW,252,3.1,5.4,11,0.00,,---,0.00,VWS V14.00,2013-04-30 19:15:00,
2013-04-30 12:20:00,94.8,32.2,29.84,WNW,295,3.1,8.7,11,0.00,,---,0.00,VWS V14.00,2013-04-30 19:20:00,
2013-04-30 12:25:00,95.4,32.6,29.84,NW,321,3.6,10.1,11,0.00,,---,0.00,VWS V14.00,2013-04-30 19:25:00,
2013-04-30 12:30:00,95.5,32.7,29.84,NNW,337,7.2,11.0,11,0.00,,---,0.00,VWS V14.00,2013-04-30 19:30:00,
2013-04-30 12:35:00,95.7,32.9,29.84,North,4,6.7,13.2,11,0.00,,---,0.00,VWS V14.00,2013-04-30 19:35:00,
2013-04-30 12:40:00,95.7,32.9,29.84,SW,232,2.7,13.2,11,0.00,,---,0.00,VWS V14.00,2013-04-30 19:40:00,
2013-04-30 12:45:00,96.3,33.3,29.84,NNW,331,4.0,8.7,11,0.00,,---,0.00,VWS V14.00,2013-04-30 19:45:00,
2013-04-30 12:50:00,96.3,33.3,29.84,West,270,7.6,10.5,11,0.00,,---,0.00,VWS V14.00,2013-04-30 19:50:00,
2013-04-30 12:55:00,96.3,33.3,29.84,North,350,8.7,10.5,11,0.00,,---,0.00,VWS V14.00,2013-04-30 19:55:00,
2013-04-30 13:00:00,96.4,33.4,29.84,NW,318,3.6,4.9,11,0.00,,---,0.00,VWS V14.00,2013-04-30 20:00:00,
2013-04-30 13:05:00,96.6,33.6,29.84,WSW,245,3.1,10.1,11,0.00,,---,0.00,VWS V14.00,2013-04-30 20:05:00,
2013-04-30 13:10:00,97.0,33.8,29.81,NNW,333,4.9,10.1,11,0.00,,---,0.00,VWS V14.00,2013-04-30 20:10:00,
2013-04-30 13:15:00,97.0,33.8,29.81,West,269,6.3,7.6,11,0.00,,---,0.00,VWS V14.00,2013-04-30 20:15:00,
2013-04-30 13:20:00,97.2,34.0,29.81,WNW,289,3.6,8.3,11,0.00,,---,0.00,VWS V14.00,2013-04-30 20:20:00,
2013-04-30 13:25:00,97.5,34.2,29.81,North,0,5.8,8.3,11,0.00,,---,0.00,VWS V14.00,2013-04-30 20:25:00,
2013-04-30 13:30:00,97.5,34.2,29.81,NNW,341,7.6,8.7,11,0.00,,---,0.00,VWS V14.00,2013-04-30 20:30:00,
2013-04-30 13:35:00,97.5,34.2,29.81,NNW,329,8.1,10.5,11,0.00,,---,0.00,VWS V14.00,2013-04-30 20:35:00,
2013-04-30 13:40:00,97.5,34.2,29.81,NW,319,8.1,10.5,11,0.00,,---,0.00,VWS V14.00,2013-04-30 20:40:00,
2013-04-30 13:45:00,97.5,34.2,29.81,SW,217,5.8,8.1,11,0.00,,---,0.00,VWS V14.00,2013-04-30 20:45:00,
2013-04-30 13:50:00,98.1,34.7,29.81,West,266,5.4,10.5,11,0.00,,---,0.00,VWS V14.00,2013-04-30 20:50:00,
2013-04-30 13:55:00,98.1,34.7,29.81,West,281,6.3,11.9,11,0.00,,---,0.00,VWS V14.00,2013-04-30 20:55:00,
2013-04-30 14:00:00,98.1,34.7,29.81,WSW,245,3.6,11.0,11,0.00,,---,0.00,VWS V14.00,2013-04-30 21:00:00,
2013-04-30 14:05:00,98.1,34.7,29.81,SSW,194,4.0,11.0,11,0.00,,---,0.00,VWS V14.00,2013-04-30 21:05:00,
2013-04-30 14:10:00,98.6,32.7,29.81,WSW,252,5.4,11.0,10,0.00,,---,0.00,VWS V14.00,2013-04-30 21:10:00,
2013-04-30 14:15:00,98.8,32.8,29.81,WNW,299,8.3,8.3,10,0.00,,---,0.00,VWS V14.00,2013-04-30 21:15:00,
2013-04-30 14:20:00,98.4,34.9,29.81,West,279,9.6,12.8,11,0.00,,---,0.00,VWS V14.00,2013-04-30 21:20:00,
2013-04-30 14:25:00,98.6,32.7,29.81,SW,224,4.9,12.8,10,0.00,,---,0.00,VWS V14.00,2013-04-30 21:25:00,
2013-04-30 14:30:00,98.8,32.8,29.81,NW,318,4.9,5.4,10,0.00,,---,0.00,VWS V14.00,2013-04-30 21:30:00,
2013-04-30 14:35:00,98.8,32.8,29.81,NW,323,8.1,8.1,10,0.00,,---,0.00,VWS V14.00,2013-04-30 21:35:00,
2013-04-30 14:40:00,98.6,32.7,29.81,NNW,328,15.0,15.0,10,0.00,,---,0.00,VWS V14.00,2013-04-30 21:40:00,
2013-04-30 14:45:00,98.6,32.7,29.81,WNW,283,3.6,8.3,10,0.00,,---,0.00,VWS V14.00,2013-04-30 21:45:00,
2013-04-30 14:50:00,98.4,34.9,29.81,WNW,292,8.3,15.0,11,0.00,,---,0.00,VWS V14.00,2013-04-30 21:50:00,
2013-04-30 14:55:00,98.8,32.8,29.78,North,350,6.3,15.0,10,0.00,,---,0.00,VWS V14.00,2013-04-30 21:55:00,
2013-04-30 15:00:00,98.6,32.7,29.78,NNW,329,6.3,9.6,10,0.00,,---,0.00,VWS V14.00,2013-04-30 22:00:00,
2013-04-30 15:05:00,98.4,34.9,29.78,West,271,6.3,14.1,11,0.00,,---,0.00,VWS V14.00,2013-04-30 22:05:00,
2013-04-30 15:10:00,98.4,34.9,29.78,SW,230,8.7,14.1,11,0.00,,---,0.00,VWS V14.00,2013-04-30 22:10:00,
2013-04-30 15:15:00,98.2,34.8,29.78,WSW,253,4.0,5.4,11,0.00,,---,0.00,VWS V14.00,2013-04-30 22:15:00,
2013-04-30 15:20:00,98.4,34.9,29.78,WNW,297,4.0,8.1,11,0.00,,---,0.00,VWS V14.00,2013-04-30 22:20:00,
2013-04-30 15:25:00,98.4,34.9,29.78,NNW,339,5.4,10.1,11,0.00,,---,0.00,VWS V14.00,2013-04-30 22:25:00,
2013-04-30 15:30:00,98.6,32.7,29.78,SSW,208,6.3,7.6,10,0.00,,---,0.00,VWS V14.00,2013-04-30 22:30:00,
2013-04-30 15:35:00,99.1,33.1,29.78,NNW,328,5.4,12.3,10,0.00,,---,0.00,VWS V14.00,2013-04-30 22:35:00,
2013-04-30 15:40:00,98.4,34.9,29.78,NW,315,5.4,13.2,11,0.00,,---,0.00,VWS V14.00,2013-04-30 22:40:00,
2013-04-30 15:45:00,98.2,34.8,29.78,WSW,248,6.3,8.3,11,0.00,,---,0.00,VWS V14.00,2013-04-30 22:45:00,
2013-04-30 15:50:00,98.1,34.7,29.78,WSW,241,5.8,8.3,11,0.00,,---,0.00,VWS V14.00,2013-04-30 22:50:00,
2013-04-30 15:55:00,98.4,34.9,29.78,NW,313,4.0,11.0,11,0.00,,---,0.00,VWS V14.00,2013-04-30 22:55:00,
2013-04-30 16:00:00,98.6,32.7,29.78,West,267,7.6,8.1,10,0.00,,---,0.00,VWS V14.00,2013-04-30 23:00:00,
2013-04-30 16:05:00,99.0,33.0,29.78,WSW,247,3.1,8.1,10,0.00,,---,0.00,VWS V14.00,2013-04-30 23:05:00,
2013-04-30 16:10:00,99.0,33.0,29.78,NNW,330,3.1,8.1,10,0.00,,---,0.00,VWS V14.00,2013-04-30 23:10:00,
2013-04-30 16:15:00,99.0,33.0,29.78,West,264,8.1,8.7,10,0.00,,---,0.00,VWS V14.00,2013-04-30 23:15:00,
2013-04-30 16:20:00,99.0,33.0,29.78,West,266,2.7,8.7,10,0.00,,---,0.00,VWS V14.00,2013-04-30 23:20:00,
2013-04-30 16:25:00,99.3,33.2,29.78,West,271,4.0,8.7,10,0.00,,---,0.00,VWS V14.00,2013-04-30 23:25:00,
2013-04-30 16:30:00,99.1,33.1,29.78,WSW,250,3.1,3.1,10,0.00,,---,0.00,VWS V14.00,2013-04-30 23:30:00,
2013-04-30 16:35:00,99.0,33.0,29.78,West,272,7.6,8.3,10,0.00,,---,0.00,VWS V14.00,2013-04-30 23:35:00,
2013-04-30 16:40:00,99.0,33.0,29.75,WSW,257,6.3,9.6,10,0.00,,---,0.00,VWS V14.00,2013-04-30 23:40:00,
2013-04-30 16:45:00,99.0,33.0,29.75,NW,305,7.6,7.6,10,0.00,,---,0.00,VWS V14.00,2013-04-30 23:45:00,
2013-04-30 16:50:00,98.8,32.8,29.75,West,277,6.7,7.6,10,0.00,,---,0.00,VWS V14.00,2013-04-30 23:50:00,
2013-04-30 16:55:00,98.2,34.8,29.78,West,265,5.8,10.1,11,0.00,,---,0.00,VWS V14.00,2013-04-30 23:55:00,
2013-04-30 17:00:00,98.2,34.8,29.78,NW,325,8.3,8.7,11,0.00,,---,0.00,VWS V14.00,2013-05-01 00:00:00,
2013-04-30 17:05:00,98.1,34.7,29.78,West,263,2.7,8.7,11,0.00,,---,0.00,VWS V14.00,2013-05-01 00:05:00,
2013-04-30 17:10:00,97.9,34.5,29.78,WNW,283,4.0,8.7,11,0.00,,---,0.00,VWS V14.00,2013-05-01 00:10:00,
2013-04-30 17:15:00,97.7,34.4,29.78,West,259,5.8,10.5,11,0.00,,---,0.00,VWS V14.00,2013-05-01 00:15:00,
2013-04-30 17:20:00,97.3,34.1,29.78,West,278,10.1,11.4,11,0.00,,---,0.00,VWS V14.00,2013-05-01 00:20:00,
2013-04-30 17:25:00,97.0,33.8,29.75,WSW,247,2.7,11.4,11,0.00,,---,0.00,VWS V14.00,2013-05-01 00:25:00,
2013-04-30 17:30:00,96.4,33.4,29.75,WSW,254,5.4,8.3,11,0.00,,---,0.00,VWS V14.00,2013-05-01 00:30:00,
2013-04-30 17:34:00,96.1,33.2,29.75,West,281,5.4,9.2,11,0.00,,---,0.00,VWS V14.00,2013-05-01 00:34:00,
2013-04-30 17:39:00,95.9,33.0,29.75,West,270,8.3,12.8,11,0.00,,---,0.00,VWS V14.00,2013-05-01 00:39:00,
2013-04-30 17:44:00,95.4,32.6,29.75,WSW,237,6.3,11.9,11,0.00,,---,0.00,VWS V14.00,2013-05-01 00:44:00,
2013-04-30 17:49:00,94.8,32.2,29.75,West,274,5.8,11.9,11,0.00,,---,0.00,VWS V14.00,2013-05-01 00:49:00,
2013-04-30 17:54:00,94.6,27.1,29.78,WNW,283,8.7,13.2,9,0.00,,---,0.00,VWS V14.00,2013-05-01 00:54:00,
2013-04-30 17:59:00,94.3,26.9,29.78,West,270,5.4,6.3,9,0.00,,---,0.00,VWS V14.00,2013-05-01 00:59:00,
2013-04-30 18:04:00,94.1,26.7,29.78,WSW,244,2.7,8.7,9,0.00,,---,0.00,VWS V14.00,2013-05-01 01:04:00,
2013-04-30 18:09:00,93.7,26.5,29.75,WSW,257,4.0,9.6,9,0.00,,---,0.00,VWS V14.00,2013-05-01 01:09:00,
2013-04-30 18:14:00,93.2,26.0,29.75,West,265,7.6,7.6,9,0.00,,---,0.00,VWS V14.00,2013-05-01 01:14:00,
2013-04-30 18:19:00,92.8,25.8,29.75,WSW,255,2.7,7.6,9,0.00,,---,0.00,VWS V14.00,2013-05-01 01:19:00,
2013-04-30 18:24:00,92.3,25.4,29.75,West,281,5.4,7.6,9,0.00,,---,0.00,VWS V14.00,2013-05-01 01:24:00,
2013-04-30 18:29:00,91.8,25.0,29.75,West,266,5.4,6.3,9,0.00,,---,0.00,VWS V14.00,2013-05-01 01:29:00,
2013-04-30 18:34:00,91.4,24.7,29.75,SW,220,5.8,6.3,9,0.00,,---,0.00,VWS V14.00,2013-05-01 01:34:00,
2013-04-30 18:39:00,90.9,26.8,29.78,West,262,4.0,11.0,10,0.00,,---,0.00,VWS V14.00,2013-05-01 01:39:00,
2013-04-30 18:44:00,90.3,26.4,29.78,WNW,291,4.5,5.4,10,0.00,,---,0.00,VWS V14.00,2013-05-01 01:44:00,
2013-04-30 18:49:00,90.0,26.2,29.78,WNW,297,2.7,6.3,10,0.00,,---,0.00,VWS V14.00,2013-05-01 01:49:00,
2013-04-30 18:54:00,89.4,25.8,29.78,West,270,7.6,8.1,10,0.00,,---,0.00,VWS V14.00,2013-05-01 01:54:00,
2013-04-30 18:59:00,89.1,25.5,29.78,West,261,8.1,9.2,10,0.00,,---,0.00,VWS V14.00,2013-05-01 01:59:00,
2013-04-30 19:04:00,88.7,25.2,29.78,WNW,288,3.1,9.2,10,0.00,,---,0.00,VWS V14.00,2013-05-01 02:04:00,
2013-04-30 19:09:00,88.3,24.9,29.78,WSW,252,4.9,9.2,10,0.00,,---,0.00,VWS V14.00,2013-05-01 02:09:00,
2013-04-30 19:14:00,88.0,24.7,29.78,West,275,3.6,4.0,10,0.00,,---,0.00,VWS V14.00,2013-05-01 02:14:00,
2013-04-30 19:19:00,87.4,26.5,29.78,West,267,5.4,6.3,11,0.00,,---,0.00,VWS V14.00,2013-05-01 02:19:00,
2013-04-30 19:24:00,87.1,26.3,29.78,WNW,295,3.6,6.7,11,0.00,,---,0.00,VWS V14.00,2013-05-01 02:24:00,
2013-04-30 19:29:00,86.9,26.1,29.78,WNW,284,3.1,8.7,11,0.00,,---,0.00,VWS V14.00,2013-05-01 02:29:00,
2013-04-30 19:34:00,86.5,25.9,29.78,WSW,256,8.1,10.1,11,0.00,,---,0.00,VWS V14.00,2013-05-01 02:34:00,
2013-04-30 19:39:00,86.2,25.6,29.78,NW,321,2.2,10.1,11,0.00,,---,0.00,VWS V14.00,2013-05-01 02:39:00,
2013-04-30 19:44:00,85.8,25.3,29.78,NW,321,5.4,8.7,11,0.00,,---,0.00,VWS V14.00,2013-05-01 02:44:00,
2013-04-30 19:49:00,85.5,25.0,29.78,WNW,289,4.5,8.7,11,0.00,,---,0.00,VWS V14.00,2013-05-01 02:49:00,
2013-04-30 19:54:00,85.1,24.7,29.81,NW,318,4.9,8.7,11,0.00,,---,0.00,VWS V14.00,2013-05-01 02:54:00,
2013-04-30 19:59:00,84.7,24.5,29.81,NW,304,7.6,7.6,11,0.00,,---,0.00,VWS V14.00,2013-05-01 02:59:00,
2013-04-30 20:04:00,84.4,24.2,29.81,West,281,4.0,7.6,11,0.00,,---,0.00,VWS V14.00,2013-05-01 03:04:00,
2013-04-30 20:09:00,84.2,24.0,29.81,NNW,335,5.8,8.1,11,0.00,,---,0.00,VWS V14.00,2013-05-01 03:09:00,
2013-04-30 20:14:00,83.8,23.8,29.81,NNW,342,4.9,6.3,11,0.00,,---,0.00,VWS V14.00,2013-05-01 03:14:00,
2013-04-30 20:19:00,83.5,23.5,29.81,West,281,6.3,8.7,11,0.00,,---,0.00,VWS V14.00,2013-05-01 03:19:00,
2013-04-30 20:24:00,83.3,23.4,29.81,WNW,292,4.0,8.7,11,0.00,,---,0.00,VWS V14.00,2013-05-01 03:24:00,
2013-04-30 20:29:00,83.1,23.2,29.81,NW,320,4.0,7.6,11,0.00,,---,0.00,VWS V14.00,2013-05-01 03:29:00,
2013-04-30 20:34:00,82.8,23.0,29.81,West,279,3.6,7.6,11,0.00,,---,0.00,VWS V14.00,2013-05-01 03:34:00,
2013-04-30 20:39:00,82.4,22.7,29.84,West,281,5.8,8.7,11,0.00,,---,0.00,VWS V14.00,2013-05-01 03:39:00,
2013-04-30 20:44:00,82.2,24.6,29.84,WNW,292,6.7,7.2,12,0.00,,---,0.00,VWS V14.00,2013-05-01 03:44:00,
2013-04-30 20:49:00,82.0,24.5,29.84,NNW,343,6.3,8.3,12,0.00,,---,0.00,VWS V14.00,2013-05-01 03:49:00,
2013-04-30 20:54:00,81.9,24.3,29.84,NW,309,4.0,8.3,12,0.00,,---,0.00,VWS V14.00,2013-05-01 03:54:00,
2013-04-30 20:59:00,81.5,24.0,29.84,North,0,6.3,6.3,12,0.00,,---,0.00,VWS V14.00,2013-05-01 03:59:00,
2013-04-30 21:01:00,81.5,24.0,29.84,West,276,3.6,6.3,12,0.00,,---,0.00,VWS V14.00,2013-05-01 04:01:00,
2013-04-30 21:06:00,81.3,23.9,29.84,NNW,343,5.4,8.3,12,0.00,,---,0.00,VWS V14.00,2013-05-01 04:06:00,
2013-04-30 21:11:00,81.1,23.8,29.84,NNW,329,2.7,11.0,12,0.00,,---,0.00,VWS V14.00,2013-05-01 04:11:00,
2013-04-30 21:16:00,81.0,23.6,29.84,NW,324,3.1,5.8,12,0.00,,---,0.00,VWS V14.00,2013-05-01 04:16:00,
2013-04-30 21:21:00,80.8,23.5,29.84,North,0,0.0,7.6,12,0.00,,---,0.00,VWS V14.00,2013-05-01 04:21:00,
2013-04-30 21:26:00,80.4,23.2,29.84,NNE,12,2.2,7.6,12,0.00,,---,0.00,VWS V14.00,2013-05-01 04:26:00,
2013-04-30 21:31:00,80.1,22.9,29.84,NNE,14,2.7,4.0,12,0.00,,---,0.00,VWS V14.00,2013-05-01 04:31:00,
2013-04-30 21:36:00,79.9,22.8,29.87,NNE,30,3.1,5.4,12,0.00,,---,0.00,VWS V14.00,2013-05-01 04:36:00,
2013-04-30 21:41:00,79.5,22.5,29.87,NNE,24,3.6,5.4,12,0.00,,---,0.00,VWS V14.00,2013-05-01 04:41:00,
2013-04-30 21:46:00,79.2,22.2,29.87,NE,35,2.2,4.0,12,0.00,,---,0.00,VWS V14.00,2013-05-01 04:46:00,
2013-04-30 21:51:00,79.0,22.1,29.87,NNE,28,0.0,5.4,12,0.00,,---,0.00,VWS V14.00,2013-05-01 04:51:00,
2013-04-30 21:56:00,78.6,23.7,29.87,North,3,3.1,5.4,13,0.00,,---,0.00,VWS V14.00,2013-05-01 04:56:00,
2013-04-30 22:01:00,78.3,23.4,29.87,North,2,0.0,0.0,13,0.00,,---,0.00,VWS V14.00,2013-05-01 05:01:00,
2013-04-30 22:06:00,77.9,23.1,29.87,NNE,26,3.6,5.4,13,0.00,,---,0.00,VWS V14.00,2013-05-01 05:06:00,
2013-04-30 22:11:00,77.7,23.0,29.87,North,6,2.2,5.4,13,0.00,,---,0.00,VWS V14.00,2013-05-01 05:11:00,
2013-04-30 22:16:00,77.4,22.7,29.87,NNE,15,4.0,4.0,13,0.00,,---,0.00,VWS V14.00,2013-05-01 05:16:00,
2013-04-30 22:21:00,77.2,22.6,29.87,North,353,2.7,7.6,13,0.00,,---,0.00,VWS V14.00,2013-05-01 05:21:00,
2013-04-30 22:26:00,77.0,22.4,29.87,North,353,0.0,7.6,13,0.00,,---,0.00,VWS V14.00,2013-05-01 05:26:00,
2013-04-30 22:31:00,76.6,22.1,29.87,North,353,2.2,4.9,13,0.00,,---,0.00,VWS V14.00,2013-05-01 05:31:00,
2013-04-30 22:36:00,76.3,21.9,29.87,North,0,2.7,4.9,13,0.00,,---,0.00,VWS V14.00,2013-05-01 05:36:00,
2013-04-30 22:41:00,76.1,21.7,29.87,North,0,0.0,4.9,13,0.00,,---,0.00,VWS V14.00,2013-05-01 05:41:00,
2013-04-30 22:46:00,75.7,21.5,29.87,NE,34,0.0,0.0,13,0.00,,---,0.00,VWS V14.00,2013-05-01 05:46:00,
2013-04-30 22:51:00,75.4,21.2,29.87,NE,34,0.0,0.0,13,0.00,,---,0.00,VWS V14.00,2013-05-01 05:51:00,
2013-04-30 22:56:00,74.8,20.7,29.87,NE,34,0.0,0.0,13,0.00,,---,0.00,VWS V14.00,2013-05-01 05:56:00,
2013-04-30 23:01:00,74.3,20.3,29.87,NE,34,0.0,0.0,13,0.00,,---,0.00,VWS V14.00,2013-05-01 06:01:00,
2013-04-30 23:06:00,73.9,20.0,29.87,NE,34,0.0,0.0,13,0.00,,---,0.00,VWS V14.00,2013-05-01 06:06:00,
2013-04-30 23:11:00,73.4,19.6,29.87,NE,34,0.0,0.0,13,0.00,,---,0.00,VWS V14.00,2013-05-01 06:11:00,
2013-04-30 23:16:00,73.0,21.1,29.87,NE,34,0.0,0.0,14,0.00,,---,0.00,VWS V14.00,2013-05-01 06:16:00,
2013-04-30 23:21:00,72.9,20.9,29.87,NE,34,0.0,0.0,14,0.00,,---,0.00,VWS V14.00,2013-05-01 06:21:00,
2013-04-30 23:26:00,72.5,20.6,29.87,NE,34,0.0,0.0,14,0.00,,---,0.00,VWS V14.00,2013-05-01 06:26:00,
2013-04-30 23:31:00,72.3,20.5,29.87,NE,34,0.0,0.0,14,0.00,,---,0.00,VWS V14.00,2013-05-01 06:31:00,
2013-04-30 23:36:00,72.0,20.2,29.87,NE,34,0.0,0.0,14,0.00,,---,0.00,VWS V14.00,2013-05-01 06:36:00,
2013-04-30 23:41:00,71.4,19.8,29.87,NE,34,0.0,0.0,14,0.00,,---,0.00,VWS V14.00,2013-05-01 06:41:00,
2013-04-30 23:46:00,70.9,19.4,29.87,NE,34,0.0,0.0,14,0.00,,---,0.00,VWS V14.00,2013-05-01 06:46:00,
2013-04-30 23:51:00,70.5,19.1,29.87,NE,34,0.0,0.0,14,0.00,,---,0.00,VWS V14.00,2013-05-01 06:51:00,
2013-04-30 23:56:00,70.2,18.8,29.87,NE,34,0.0,0.0,14,0.00,,---,0.00,VWS V14.00,2013-05-01 06:56:00,